N350D KFXE-MYBG

Flight info

Callsign N350D
Flight time 0h 32m
Altitude 15000
Route MYBG
Aircraft B350/L-SBGRW/S

Departure

Time 2026-04-28 15:37
Airport Fort Lauderdale Executive Airport (KFXE)

Arrival

Time 2026-04-28 16:10
Airport Great Harbour Cay Airport (MYBG)
Time Latitude Longitude Altitude Speed Heading
2026-04-28 15:10 26.19482 -80.17036 15 ft 0 kts 218°
2026-04-28 15:33 26.19479 -80.17040 15 ft 3 kts 234°
2026-04-28 15:33 26.19496 -80.17088 15 ft 10 kts 328°
2026-04-28 15:33 26.19562 -80.17074 16 ft 10 kts 327°
2026-04-28 15:34 26.19620 -80.17157 16 ft 16 kts 307°
2026-04-28 15:34 26.19694 -80.17260 16 ft 10 kts 307°
2026-04-28 15:34 26.19691 -80.17350 16 ft 15 kts 264°
2026-04-28 15:34 26.19678 -80.17490 15 ft 21 kts 264°
2026-04-28 15:35 26.19658 -80.17671 15 ft 25 kts 265°
2026-04-28 15:35 26.19658 -80.18005 14 ft 10 kts 297°
2026-04-28 15:35 26.19684 -80.18058 14 ft 7 kts 308°
2026-04-28 15:36 26.19744 -80.18076 15 ft 10 kts 356°
2026-04-28 15:36 26.19761 -80.18056 15 ft 6 kts 83°
2026-04-28 15:36 26.19768 -80.17977 15 ft 19 kts 84°
2026-04-28 15:36 26.19814 -80.17518 17 ft 97 kts 84°
2026-04-28 15:37 26.19901 -80.16608 153 ft 129 kts 84°
2026-04-28 15:37 26.19987 -80.15556 564 ft 143 kts 84°
2026-04-28 15:37 26.20078 -80.14444 1077 ft 147 kts 83°
2026-04-28 15:37 26.20143 -80.13687 1416 ft 150 kts 83°
2026-04-28 15:38 26.20263 -80.12125 2064 ft 156 kts 84°
2026-04-28 15:38 26.20355 -80.10883 2476 ft 164 kts 84°
2026-04-28 15:38 26.20437 -80.09646 2996 ft 163 kts 84°
2026-04-28 15:38 26.20519 -80.08402 3508 ft 162 kts 84°
2026-04-28 15:39 26.20606 -80.07147 3988 ft 163 kts 84°
2026-04-28 15:39 26.20692 -80.05888 4443 ft 165 kts 84°
2026-04-28 15:39 26.20780 -80.04616 4872 ft 166 kts 84°
2026-04-28 15:39 26.20865 -80.03313 5330 ft 174 kts 84°
2026-04-28 15:40 26.20945 -80.01968 5946 ft 177 kts 84°
2026-04-28 15:40 26.21018 -80.00621 6606 ft 177 kts 84°
2026-04-28 15:40 26.21086 -79.99255 7264 ft 176 kts 84°
2026-04-28 15:40 26.21088 -79.97915 7873 ft 177 kts 92°
2026-04-28 15:41 26.20868 -79.96568 8446 ft 180 kts 99°
2026-04-28 15:41 26.20588 -79.95211 9000 ft 181 kts 98°
2026-04-28 15:41 26.20308 -79.93848 9527 ft 184 kts 98°
2026-04-28 15:41 26.20023 -79.92477 10040 ft 185 kts 99°
2026-04-28 15:42 26.19726 -79.91071 10557 ft 186 kts 99°
2026-04-28 15:42 26.19432 -79.89686 11041 ft 187 kts 98°
2026-04-28 15:42 26.19132 -79.88278 11525 ft 187 kts 99°
2026-04-28 15:42 26.18830 -79.86865 11992 ft 188 kts 99°
2026-04-28 15:43 26.18528 -79.85459 12444 ft 189 kts 98°
2026-04-28 15:43 26.18222 -79.84032 12883 ft 190 kts 98°
2026-04-28 15:43 26.17920 -79.82623 13303 ft 190 kts 99°
2026-04-28 15:43 26.17609 -79.81176 13721 ft 192 kts 99°
2026-04-28 15:44 26.17302 -79.79746 14124 ft 194 kts 99°
2026-04-28 15:44 26.16985 -79.78268 14548 ft 196 kts 99°
2026-04-28 15:44 26.16668 -79.76789 14912 ft 200 kts 99°
2026-04-28 15:44 26.16335 -79.75218 14974 ft 219 kts 99°
2026-04-28 15:45 26.15976 -79.73520 14983 ft 236 kts 99°
2026-04-28 15:45 26.15584 -79.71680 14982 ft 252 kts 99°
2026-04-28 15:45 26.15172 -79.69733 14981 ft 265 kts 99°
2026-04-28 15:45 26.14748 -79.67680 14978 ft 276 kts 99°
2026-04-28 15:46 26.14320 -79.65581 14973 ft 284 kts 99°
2026-04-28 15:46 26.13882 -79.63399 14969 ft 290 kts 99°
2026-04-28 15:46 26.13441 -79.61184 14968 ft 295 kts 99°
2026-04-28 15:46 26.12992 -79.58946 14962 ft 299 kts 99°
2026-04-28 15:47 26.12547 -79.56692 14962 ft 302 kts 99°
2026-04-28 15:47 26.12093 -79.54395 14961 ft 304 kts 99°
2026-04-28 15:47 26.11647 -79.52124 14958 ft 306 kts 99°
2026-04-28 15:47 26.11182 -79.49783 14959 ft 307 kts 100°
2026-04-28 15:48 26.10690 -79.47475 14961 ft 308 kts 100°
2026-04-28 15:48 26.10183 -79.45173 14961 ft 309 kts 101°
2026-04-28 15:48 26.09669 -79.42861 14965 ft 310 kts 101°
2026-04-28 15:48 26.09149 -79.40525 14961 ft 310 kts 101°
2026-04-28 15:49 26.08631 -79.38188 14962 ft 310 kts 101°
2026-04-28 15:49 26.08117 -79.35864 14961 ft 311 kts 101°
2026-04-28 15:49 26.07598 -79.33514 14962 ft 311 kts 101°
2026-04-28 15:49 26.07081 -79.31169 14961 ft 311 kts 101°
2026-04-28 15:50 26.06566 -79.28834 14961 ft 311 kts 101°
2026-04-28 15:50 26.06056 -79.26520 14962 ft 311 kts 101°
2026-04-28 15:50 26.05536 -79.24165 14961 ft 311 kts 101°
2026-04-28 15:50 26.05024 -79.21841 14961 ft 311 kts 101°
2026-04-28 15:51 26.04509 -79.19508 14960 ft 311 kts 101°
2026-04-28 15:51 26.03994 -79.17179 14963 ft 312 kts 101°
2026-04-28 15:51 26.03476 -79.14838 14964 ft 312 kts 101°
2026-04-28 15:51 26.02957 -79.12497 14964 ft 312 kts 101°
2026-04-28 15:52 26.02439 -79.10162 14963 ft 312 kts 101°
2026-04-28 15:52 26.01922 -79.07828 14964 ft 312 kts 101°
2026-04-28 15:52 26.01403 -79.05490 14961 ft 312 kts 101°
2026-04-28 15:52 26.00880 -79.03136 14961 ft 312 kts 101°
2026-04-28 15:53 26.00362 -79.00809 14961 ft 312 kts 101°
2026-04-28 15:53 25.99841 -78.98467 14961 ft 312 kts 101°
2026-04-28 15:53 25.99322 -78.96138 14960 ft 312 kts 101°
2026-04-28 15:53 25.98800 -78.93796 14959 ft 312 kts 101°
2026-04-28 15:54 25.98278 -78.91454 14959 ft 312 kts 101°
2026-04-28 15:54 25.97763 -78.89147 14959 ft 312 kts 101°
2026-04-28 15:54 25.97235 -78.86784 14961 ft 312 kts 101°
2026-04-28 15:54 25.96714 -78.84454 14960 ft 312 kts 101°
2026-04-28 15:55 25.96186 -78.82097 14959 ft 312 kts 101°
2026-04-28 15:55 25.95661 -78.79753 14962 ft 312 kts 101°
2026-04-28 15:55 25.95139 -78.77422 14959 ft 312 kts 101°
2026-04-28 15:55 25.94614 -78.75084 14959 ft 312 kts 101°
2026-04-28 15:56 25.94091 -78.72752 14961 ft 312 kts 101°
2026-04-28 15:56 25.93562 -78.70398 14957 ft 312 kts 101°
2026-04-28 15:56 25.93036 -78.68061 14961 ft 312 kts 101°
2026-04-28 15:56 25.92509 -78.65720 14960 ft 312 kts 101°
2026-04-28 15:57 25.91986 -78.63400 14959 ft 309 kts 101°
2026-04-28 15:57 25.91474 -78.61159 14935 ft 288 kts 101°
2026-04-28 15:57 25.90993 -78.59069 14611 ft 278 kts 101°
2026-04-28 15:57 25.90524 -78.57015 14240 ft 271 kts 101°
2026-04-28 15:58 25.90068 -78.55012 13870 ft 265 kts 101°
2026-04-28 15:58 25.89621 -78.53040 13497 ft 260 kts 101°
2026-04-28 15:58 25.89181 -78.51102 13133 ft 256 kts 101°
2026-04-28 15:58 25.88753 -78.49210 12779 ft 252 kts 101°
2026-04-28 15:59 25.88329 -78.47334 12424 ft 250 kts 101°
2026-04-28 15:59 25.88050 -78.46104 12188 ft 248 kts 101°
2026-04-28 15:59 25.87487 -78.43617 11695 ft 246 kts 101°
2026-04-28 15:59 25.87076 -78.41802 11336 ft 245 kts 101°
2026-04-28 16:00 25.86662 -78.39980 10975 ft 244 kts 102°
2026-04-28 16:00 25.86247 -78.38149 10616 ft 244 kts 102°
2026-04-28 16:00 25.85836 -78.36331 10259 ft 244 kts 102°
2026-04-28 16:00 25.85420 -78.34499 9896 ft 244 kts 103°
2026-04-28 16:01 25.85002 -78.32664 9530 ft 243 kts 103°
2026-04-28 16:01 25.84599 -78.30901 9165 ft 235 kts 103°
2026-04-28 16:01 25.84200 -78.29155 8805 ft 234 kts 103°
2026-04-28 16:01 25.83801 -78.27404 8445 ft 232 kts 103°
2026-04-28 16:02 25.83403 -78.25661 8079 ft 232 kts 103°
2026-04-28 16:02 25.83012 -78.23947 7719 ft 231 kts 103°
2026-04-28 16:02 25.82618 -78.22223 7360 ft 230 kts 103°
2026-04-28 16:02 25.82225 -78.20505 6996 ft 229 kts 103°
2026-04-28 16:03 25.81838 -78.18813 6631 ft 225 kts 103°
2026-04-28 16:03 25.81456 -78.17152 6252 ft 217 kts 103°
2026-04-28 16:03 25.81087 -78.15550 5864 ft 212 kts 103°
2026-04-28 16:03 25.80729 -78.13990 5471 ft 207 kts 103°
2026-04-28 16:04 25.80383 -78.12485 5081 ft 202 kts 103°
2026-04-28 16:04 25.80034 -78.10967 4684 ft 198 kts 103°
2026-04-28 16:04 25.79698 -78.09502 4293 ft 195 kts 103°
2026-04-28 16:04 25.79371 -78.08079 3909 ft 191 kts 103°
2026-04-28 16:05 25.79043 -78.06651 3513 ft 188 kts 103°
2026-04-28 16:05 25.78726 -78.05270 3124 ft 185 kts 103°
2026-04-28 16:05 25.78410 -78.03896 2735 ft 183 kts 104°
2026-04-28 16:05 25.78099 -78.02544 2359 ft 180 kts 104°
2026-04-28 16:06 25.77792 -78.01207 2028 ft 177 kts 104°
2026-04-28 16:06 25.77497 -77.99918 1965 ft 173 kts 103°
2026-04-28 16:06 25.77190 -77.98541 1977 ft 196 kts 103°
2026-04-28 16:06 25.76846 -77.97009 1967 ft 206 kts 104°
2026-04-28 16:07 25.76495 -77.95498 1951 ft 198 kts 104°
2026-04-28 16:07 25.76199 -77.94061 1897 ft 185 kts 97°
2026-04-28 16:07 25.76299 -77.91416 1666 ft 156 kts 86°
2026-04-28 16:08 25.76373 -77.90282 1443 ft 142 kts 87°
2026-04-28 16:08 25.76421 -77.89239 1250 ft 133 kts 89°
2026-04-28 16:08 25.76288 -77.88269 1099 ft 126 kts 111°
2026-04-28 16:09 25.75396 -77.86672 600 ft 117 kts 122°
2026-04-28 16:09 25.74937 -77.85917 355 ft 119 kts 120°
2026-04-28 16:09 25.74507 -77.85165 128 ft 109 kts 120°
2026-04-28 16:10 25.73869 -77.84072 5 ft 20 kts 127°
2026-04-28 16:10 25.73835 -77.84013 5 ft 3 kts 348°
2026-04-28 16:10 25.73946 -77.84206 5 ft 25 kts 303°
2026-04-28 16:11 25.74103 -77.84419 5 ft 7 kts 61°
2026-04-28 16:11 25.74126 -77.84393 5 ft 0 kts 312°